STARLINK-2325 (47979 NORAD) Tracking and Keplerian Element Data

This shows tracking and keplerian element data for the satellite.

Feedback or suggestion? Click here.




ElementValue
Catalog47979
NameSTARLINK-2325
Epoch Orbit198
Epoch Day173.91668981
Epoch Year2021
RAAN114.3261
Inclination53.0457
Eccentricity0.0002072
Argument of Perigee27.301
Mean Anonmoly109.3297
Mean Motion15.73204116
Decay Rate0.00014092
L11 47979U 21024C 21173.91668981 .00014092 00000-0 10462-3 0 9999
L22 47979 53.0457 114.3261 0002072 27.3010 109.3297 15.73204116 1983

Live tracking and technical data element details for STARLINK-2325 (NORAD 47979). STARLINK-2325 can be tracked NOW for your location showing map with azimuth and elevation plus other details from your city location.

Track the satellite on the map from your city or location and see movement details for azimuth, elevation, latitude, longitude, range, height, and movement on the map or in text.







IsCatalogInMostPopularTable: catalog: 47979, numindb: 45
Update: records affected: 1



GetName: 47979 STARLINK-2325

Hit Count: updated at: Thu, 24 Jun 2021 03:16:08 GMT